CW3081 Weather Reports


time (UTC)temp
C
wind
direction
speed
KPH
gust
KPH
rain 1hr
cm
rain 24hr
cm
rain mn
cm
humidity
%
barometer
mb
20260507151546 13 168 0.0 3.2 0.00 0.00 0.00 74 1016.3
20260507150049 12 15 0.0 3.2 0.00 0.00 0.00 76 1016.3
20260507144546 12 0 0.0 4.8 0.00 0.00 0.00 82 1016.4
20260507143048 11 0 0.0 1.6 0.00 0.00 0.00 85 1016.4
20260507141559 11 0 0.0 1.6 0.00 0.00 0.00 88 1016.3
20260507140045 11 0 0.0 3.2 0.00 0.00 0.00 89 1016.3
20260507134545 10 337 0.0 1.6 0.00 0.00 0.00 92 1016.1
20260507133049 10 0 0.0 0.0 0.00 0.00 0.00 95 1016.1
20260507131548 10 0 0.0 0.0 0.00 0.00 0.00 96 1016.1
20260507130046 9 0 0.0 0.0 0.00 0.00 0.00 96 1016.0
20260507124544 8 0 0.0 0.0 0.00 0.00 0.00 97 1015.8
20260507123045 8 0 0.0 0.0 0.00 0.00 0.00 97 1015.8
20260507121544 8 0 0.0 0.0 0.00 0.00 0.00 97 1015.7
20260507120045 -17 0.0 0.0 0.00 0.00 0.00 1015.7
20260507114542 -17 0.0 0.0 0.00 0.00 0.00 1015.6
20260507113050 -17 0.0 0.0 0.00 0.00 0.00 1015.3
20260507111543 -17 0.0 0.0 0.00 0.00 0.00 1015.2
20260507110046 -17 0.0 0.0 0.00 0.00 0.00 1014.7
20260507104538 -17 0.0 0.0 0.00 0.00 0.00 1014.5
20260507103047 -17 0.0 0.0 0.00 0.00 0.00 1014.4
20260507101545 8 0 0.0 0.0 0.00 0.00 0.00 96 1014.3
20260507100046 8 0 0.0 0.0 0.00 0.00 0.00 96 1014.4
20260507094549 9 0 0.0 0.0 0.00 0.00 0.00 96 1014.4
20260507093038 9 0 0.0 0.0 0.00 0.00 0.00 96 1014.2
20260507091547 9 0 0.0 0.0 0.00 0.00 0.00 96 1014.2
20260507090047 10 0 0.0 0.0 0.00 0.00 0.00 97 1014.4
20260507084541 10 0 0.0 0.0 0.00 0.00 0.00 97 1014.2
20260507083044 10 0 0.0 0.0 0.00 0.00 0.00 97 1014.2
20260507081544 10 0 0.0 0.0 0.00 0.00 0.00 97 1014.4
20260507080041 10 0 0.0 0.0 0.00 0.00 0.00 97 1014.2
20260507074550 10 0 0.0 0.0 0.00 0.00 0.00 97 1014.1
20260507073104 10 0 0.0 0.0 0.00 0.00 0.00 97 1014.2
20260507071543 10 0 0.0 0.0 0.00 0.00 0.00 97 1014.2
20260507070049 10 0 0.0 0.0 0.00 0.00 0.00 97 1014.5
20260507064604 10 0 0.0 0.0 0.00 0.00 0.00 97 1014.4
20260507063056 10 0 0.0 0.0 0.00 0.00 0.00 97 1014.5
20260507061543 10 0 0.0 0.0 0.00 0.00 0.00 97 1014.6
20260507060044 10 0 0.0 0.0 0.00 0.00 0.00 97 1014.5
20260507054546 10 0 0.0 0.0 0.00 0.00 0.00 97 1014.5
20260507053047 10 0 0.0 0.0 0.00 0.00 0.00 97 1014.2
20260507051545 11 0 0.0 0.0 0.00 0.00 0.00 97 1014.4
20260507050050 11 0 0.0 0.0 0.00 0.00 0.00 97 1014.8
20260507044549 10 0 0.0 0.0 0.00 0.00 0.00 97 1014.8
20260507043044 11 0 0.0 0.0 0.00 0.00 0.00 97 1014.9
20260507041545 10 0 0.0 0.0 0.00 0.00 0.00 97 1015.1
20260507040052 11 0 0.0 0.0 0.00 0.00 0.00 97 1014.8
20260507034556 11 0 0.0 0.0 0.00 0.00 0.00 97 1014.9
20260507033101 11 0 0.0 0.0 0.00 0.00 0.00 96 1014.6
20260507031539 10 0 0.0 0.0 0.00 0.00 0.00 96 1015.1
20260507030049 11 0 0.0 0.0 0.00 0.00 0.00 96 1014.5
20260507024554 11 0 0.0 0.0 0.00 0.00 0.00 96 1014.6
20260507023045 11 0 0.0 0.0 0.00 0.00 0.00 96 1014.3
20260507021544 11 0 0.0 0.0 0.00 0.00 0.00 96 1014.2
20260507020042 11 0 0.0 0.0 0.00 0.00 0.00 96 1014.3
20260507014552 11 0 0.0 0.0 0.00 0.00 0.00 96 1014.1
20260507013054 11 0 0.0 0.0 0.00 0.00 0.00 96 1014.4
20260507011545 11 0 0.0 0.0 0.00 0.00 0.00 96 1015.3
20260507010043 11 0 0.0 0.0 0.00 0.00 0.00 96 1015.1
20260507004543 11 0 0.0 0.0 0.00 0.00 0.00 96 1014.0
20260507003039 11 0 0.0 0.0 0.00 0.00 0.00 96 1014.1
20260507001603 11 0 0.0 0.0 0.00 0.00 0.00 96 1013.3
20260507000046 12 0 0.0 0.0 0.00 0.00 0.00 96 1012.5
20260506234552 12 0 0.0 0.0 0.00 0.00 0.00 96 1012.5
20260506233052 12 0 0.0 0.0 0.00 0.00 0.00 96 1012.9
20260506231541 12 0 0.0 0.0 0.00 0.00 0.00 96 1013.5
20260506230049 12 0 0.0 0.0 0.00 0.00 0.00 96 1013.5
20260506224600 12 0 0.0 0.0 0.00 0.00 0.00 96 1013.5
20260506223041 12 0 0.0 0.0 0.00 0.00 0.00 96 1014.1
20260506221544 12 0 0.0 0.0 0.00 0.00 0.00 96 1013.7
20260506220051 12 0 0.0 0.0 0.00 0.00 0.00 96 1013.8
20260506214549 12 0 0.0 0.0 0.00 0.00 0.00 96 1013.7
20260506213046 12 0 0.0 0.0 0.00 0.00 0.00 96 1013.6
20260506211553 12 0 0.0 0.0 0.00 0.00 0.00 96 1013.6
20260506210045 12 0 0.0 0.0 0.00 0.00 0.00 96 1013.0
20260506204550 12 0 0.0 0.0 0.00 0.00 0.00 96 1013.3
20260506203057 12 0 0.0 0.0 0.00 0.00 0.00 96 1013.2
20260506201547 11 0 0.0 0.0 0.00 0.00 0.00 96 1013.3
20260506200047 11 0 0.0 0.0 0.00 0.00 0.00 96 1013.7
20260506194553 11 0 0.0 0.0 0.00 0.00 0.00 96 1013.6
20260506193050 11 0 0.0 0.0 0.00 0.00 0.00 96 1013.7
20260506191552 11 0 0.0 0.0 0.00 0.00 0.00 96 1012.9
20260506190046 11 0 0.0 0.0 0.00 0.00 0.00 97 1013.9
20260506184543 11 0 0.0 0.0 0.00 0.00 0.00 96 1013.3
20260506183051 11 0 0.0 1.6 0.00 0.00 0.00 96 1014.2
20260506181557 11 0 0.0 1.6 0.00 0.00 0.00 96 1014.1
20260506180049 11 0 0.0 0.0 0.00 0.00 0.00 96 1014.0
20260506174547 11 0 0.0 0.0 0.00 0.00 0.00 96 1013.9
20260506173107 11 0 0.0 1.6 0.00 0.00 0.00 96 1013.8
20260506171552 11 0 0.0 0.0 0.00 0.00 0.00 96 1013.0
20260506170058 11 0 0.0 0.0 0.00 0.00 0.00 96 1013.2
20260506164547 11 0 0.0 0.0 0.00 0.00 0.00 96 1013.3
20260506163048 11 0 0.0 1.6 0.00 0.00 0.00 96 1013.2
20260506161543 11 0 0.0 0.0 0.00 0.00 0.00 96 1013.1
20260506160107 11 0 0.0 0.0 0.00 0.00 0.00 96 1013.4
20260506154548 11 0 0.0 0.0 0.00 0.00 0.00 96 1013.5
20260506153040 10 0 0.0 1.6 0.00 0.00 0.00 96 1013.2